Location: *
(51.0333°S, 178.4667°E)
Time: 10:55:03
(UTC+00:00)

Mayak - Pass Details

Date: 15 November 2019
Orbit: 582 x 601 km, 97.5° (Epoch: 10 December)

Event Time Altitude Azimuth Distance (km) Brightness Sun altitude
Exits shadow 08:06:58 - 72° (ENE) 2,381 1.3 -5.1°
Reaches altitude 10° 08:08:32 10° 86° (E) 1,937 0.9 -5.3°
Maximum altitude 08:10:59 15° 122° (ESE) 1,622 0.8 -5.6°
Drops below altitude 10° 08:13:26 10° 158° (SSE) 1,947 1.7 -5.9°
Sets 08:16:22 0° 180° (S) 2,856 2.9 -6.2°
